Moline, IL

4:53 PM CST on December 05, 2019 (GMT -0600)
Quad-City International

Weather History for KMLI - July, 2019

Change the Weather History Date:

Wednesday, July 17, 2019

  Actual Average Record
Temperature  
Mean Temperature 82 °F 76 °F  
Max Temperature 92 °F 86 °F 103 °F (1936)
Min Temperature 71 °F 65 °F 52 °F (2014)
Degree Days  
Heating Degree Days 0 0  
Month to date heating degree days 0 0  
Since 1 June heating degree days 2 19  
Since 1 July heating degree days 0 0  
Cooling Degree Days 17 11  
Month to date cooling degree days 265 183  
Year to date cooling degree days 564 473  
Since 1 June cooling degree days 498 397  
Growing Degree Days 31 (Base 50)    
Moisture  
Dew Point 71 °F    
Average Humidity 71    
Maximum Humidity 93    
Minimum Humidity 49    
Precipitation  
Precipitation 0.13 in 0.14 in 3.85 in (1969)
Month to date precipitation 1.15 2.52  
Year to date precipitation 30.76 20.87  
Snow  
Snow 0.00 in 0.00 in - ()
Month to date snowfall 0.0 0.0  
Since 1 June snowfall 0.0 0.0  
Since 1 July snowfall 0.0 0.0  
Snow Depth 0.00 in    
Sea Level Pressure  
Sea Level Pressure 29.89 in    
Wind  
Wind Speed 3 mph (SW)    
Max Wind Speed 10 mph    
Max Gust Speed 14 mph    
Visibility 9 miles    
Events Rain , Thunderstorm    
T = Trace of Precipitation, MM = Missing Value Source: NWS Daily Summary

Daily Weather History Graph

Daily Weather History Graph

Search for Another Location

Airport or City:

Astronomy

Jul. 17, 2019 Rise Set
Actual Time 5:42 AM CDT 8:33 PM CDT
Civil Twilight 5:10 AM CDT 9:05 PM CDT
Nautical Twilight 4:28 AM CDT 9:46 PM CDT
Astronomical Twilight 3:41 AM CDT 10:34 PM CDT
Moon 9:21 PM CDT (7/17) 6:15 AM CDT (7/17)
Length of Visible Light 15h 55m
Length of Day
14h 50m
Full, 99% of the Moon is Illuminated
Jul 17
Full
Jul 24
Last Quarter
Jul 31
New
Aug 7
First Quarter
Aug 15
Full

Hourly Weather History & Observations

Time (CDT) Temp. Heat Index Dew Point Humidity Pressure Visibility Wind Dir Wind Speed Gust Speed Precip Events Conditions
12:52 AM 75.9 °F - 70.0 °F 82% 29.88 in 10.0 mi Calm Calm - N/A   Clear
1:52 AM 75.0 °F - 70.0 °F 84% 29.87 in 10.0 mi Calm Calm - N/A   Partly Cloudy
2:52 AM 72.0 °F - 69.1 °F 91% 29.89 in 9.0 mi Calm Calm - N/A   Partly Cloudy
3:52 AM 73.9 °F - 70.0 °F 87% 29.90 in 10.0 mi Calm Calm - N/A   Clear
4:52 AM 72.0 °F - 68.0 °F 87% 29.89 in 9.0 mi WSW 3.5 mph - N/A   Clear
5:52 AM 71.1 °F - 68.0 °F 90% 29.89 in 8.0 mi Calm Calm - N/A   Clear
6:52 AM 73.9 °F - 70.0 °F 87% 29.89 in 9.0 mi Calm Calm - N/A   Clear
7:52 AM 79.0 °F - 71.1 °F 77% 29.91 in 10.0 mi SSW 4.6 mph - N/A   Clear
8:52 AM 82.9 °F 88.0 °F 72.0 °F 69% 29.92 in 10.0 mi SW 3.5 mph - N/A   Clear
9:52 AM 86.0 °F 92.2 °F 72.0 °F 63% 29.93 in 10.0 mi SW 3.5 mph - N/A   Clear
10:52 AM 88.0 °F 93.8 °F 71.1 °F 57% 29.92 in 10.0 mi Variable 3.5 mph - N/A   Clear
11:52 AM 89.1 °F 95.0 °F 71.1 °F 55% 29.91 in 10.0 mi Variable 4.6 mph - N/A   Partly Cloudy
12:52 PM 91.0 °F 97.6 °F 71.1 °F 52% 29.92 in 10.0 mi SW 5.8 mph - N/A   Clear
1:52 PM 91.0 °F 96.6 °F 70.0 °F 50% 29.90 in 10.0 mi SSW 5.8 mph - N/A   Clear
2:52 PM 88.0 °F 93.8 °F 71.1 °F 57% 29.93 in 10.0 mi WSW 5.8 mph - N/A   Partly Cloudy
3:24 PM 86.0 °F 92.2 °F 72.0 °F 63% 29.94 in 10.0 mi WSW 6.9 mph - N/A Thunderstorm Clear
3:39 PM 84.9 °F 91.4 °F 73.0 °F 67% 29.93 in 10.0 mi SSW 9.2 mph - 0.00 in Rain , Thunderstorm Light Thunderstorms and Rain
3:52 PM 82.0 °F 87.9 °F 73.9 °F 76% 29.92 in 4.0 mi WSW 9.2 mph - 0.02 in Rain , Thunderstorm Rain
4:18 PM 80.1 °F 84.5 °F 73.9 °F 81% 29.95 in 6.0 mi WSW 5.8 mph - 0.04 in Rain , Thunderstorm Light Thunderstorms and Rain
4:33 PM 79.0 °F - 73.0 °F 82% 29.93 in 4.0 mi South 3.5 mph - 0.06 in Rain Rain
4:45 PM 78.1 °F - 73.0 °F 84% 29.92 in 7.0 mi NE 3.5 mph - 0.08 in Rain , Thunderstorm Light Thunderstorms and Rain
4:52 PM 79.0 °F - 73.9 °F 84% 29.90 in 8.0 mi NNE 4.6 mph - 0.09 in Rain , Thunderstorm Light Thunderstorms and Rain
5:00 PM 79.0 °F - 73.9 °F 84% 29.91 in 8.0 mi NNE 3.5 mph - 0.01 in Rain Light Rain
5:52 PM 77.0 °F - 73.0 °F 88% 29.84 in 10.0 mi South 4.6 mph - 0.02 in   Scattered Clouds
6:52 PM 78.1 °F - 71.1 °F 79% 29.79 in 10.0 mi Calm Calm - N/A   Clear
7:52 PM 78.1 °F - 73.0 °F 84% 29.83 in 10.0 mi Calm Calm - N/A   Clear
8:52 PM 75.0 °F - 69.1 °F 82% 29.84 in 10.0 mi Calm Calm - N/A   Clear
9:52 PM 73.0 °F - 69.1 °F 87% 29.86 in 10.0 mi East 4.6 mph - N/A   Clear
10:52 PM 73.0 °F - 68.0 °F 84% 29.86 in 10.0 mi Calm Calm - N/A   Clear
11:52 PM 73.0 °F - 68.0 °F 84% 29.87 in 10.0 mi Calm Calm - N/A   Clear